Zurück zum Katalog

ARIANE 1 DEB

AktivHEO
NORAD 40780·DEBRIS·🇫🇷 France

Gestartet Dec 24, 1979 von Guiana Space Centre

Loading…

Nächste Überflüge (nächste 24 Stunden)

TLE

AktuellSource: Space-Track

Epoche: Sep 6, 2026, 03:46 UTC

1 40780U 79104AH  26249.15731022 -.00000054  00000-0  33747-4 0  9992
2 40780  19.2003 206.3584 5912890 170.6790 208.9641  3.90296258333977

Verfolge ARIANE 1 DEB in Echtzeit mit AllMySat

Download on the App Store